Retour au catalogue

YAOGAN-30 AF

ActifMilitaireVLEO
NORAD 49029·PAYLOAD·🇨🇳 China

Lancé Jul 19, 2021 depuis Xichang Satellite Launch Center

Loading…

Prochains Passages (prochaines 24 heures)

TLE

FraisSource: Space-Track

Époque: Sep 14, 2026, 15:04 UTC

1 49029U 21065D   26257.62834797  .00001728  00000-0  12788-3 0  9993
2 49029  34.9940  87.3484 0004547 323.9710  36.0691 15.03030708282121

Suivez YAOGAN-30 AF en temps réel avec AllMySat

Download on the App Store